Cloud_Cover
100 100 100 100 100 100 100 100 100 100 100 100 100 100 100 100 100 95 100 100 100 98 100 92 100 52 74 91 100 100 100 100 100 100 100 100 74 95
100 100 100 100 100 99 100 100 100 100 100 100 99 90 88 93 100 100 100 100 100 88 99 56 71 99 100 100 100 100 100 100 100 100 100 100 94 100
100 100 100 100 100 100 100 100 100 100 100 97 98 87 98 100 100 100 100 100 100 100 83 97 91 100 100 100 100 100 100 100 100 100 100 100 100 100
100 100 100 100 100 100 100 100 100 100 88 95 100 100 100 100 100 100 100 100 100 100 91 100 100 100 100 98 100 100 100 100 100 100 100 100 100 100
100 100 100 100 100 100 100 72 100 95 100 100 100 100 100 100 100 100 100 100 100 100 100 100 100 100 100 100 100 100 100 100 100 100 100 100 100 100
100 97 98 100 100 91 100 96 98 100 100 100 100 100 100 100 100 100 100 100 100 100 94 100 100 100 100 100 100 100 100 100 100 100 100 100 100 100
100 100 100 100 97 27 45 68 88 97 100 100 100 100 100 100 100 100 100 100 98 100 96 98 100 100 100 100 100 100 100 100 100 100 100 100 100 100
16 5 5 5 6 73 69 36 8 9 36 72 100 100 100 100 100 100 100 23 70 78 100 100 100 100 100 100 100 100 100 100 100 100 100 100 100 100
30 43 94 79 99 100 60 5 4 3 10 21 99 100 100 100 100 88 5 24 99 86 100 100 100 100 100 100 100 100 100 100 100 100 100 100 100 100
100 49 89 100 100 100 12 3 4 0 0 1 4 45 37 25 9 7 59 74 92 99 100 100 100 100 100 100 100 100 100 100 100 100 100 100 100 100
46 11 32 72 100 97 1 0 0 0 4 3 5 5 5 5 51 36 67 62 92 87 87 100 100 100 100 100 100 100 100 100 100 100 100 100 100 100
99 34 68 100 100 56 0 0 0 5 5 6 5 5 5 36 33 16 57 5 38 85 100 100 100 100 100 100 100 100 100 100 100 100 100 100 100 100
83 47 100 85 56 3 3 2 5 5 5 5 5 36 60 8 82 5 15 67 85 96 100 100 100 100 100 100 100 100 100 100 100 100 100 100 100 100
100 77 9 5 5 5 21 5 5 6 5 5 5 7 5 5 44 82 97 96 100 75 74 100 100 100 100 100 100 100 100 100 100 100 100 100 100 100
60 5 5 6 5 7 12 5 5 5 5 69 26 47 17 12 45 58 52 54 43 31 32 13 49 72 66 95 96 98 100 98 84 98 100 100 100 100
97 35 32 97 50 7 52 76 74 64 64 96 100 85 65 65 66 58 39 81 69 56 55 34 17 48 80 64 30 70 98 79 95 94 90 99 100 100
73 100 100 100 100 85 95 72 50 74 85 100 100 100 67 90 96 90 89 61 63 65 34 27 45 21 30 47 60 66 33 70 62 80 66 90 96 98
100 100 100 100 78 89 100 100 100 100 100 100 100 100 99 100 100 100 100 89 74 72 93 58 61 78 53 95 58 85 35 31 48 55 72 72 54 62
100 100 100 98 80 100 100 100 100 100 100 100 100 100 100 100 100 100 100 85 85 75 70 36 54 95 53 32 78 61 36 62 45 46 63 98 100 63
100 100 100 84 100 100 100 100 98 80 100 100 100 100 100 100 100 99 92 100 74 66 70 72 83 80 36 58 62 84 67 34 16 26 62 53 75 84
100 100 100 100 100 100 100 100 100 97 100 100 100 100 100 100 100 100 100 84 80 82 76 73 98 93 84 94 64 15 16 11 19 50 51 69 44 31
100 100 91 96 100 100 100 100 100 100 100 100 100 100 100 100 100 100 99 100 100 69 80 97 99 98 95 85 70 75 16 15 20 5 44 100 94 88
100 100 100 100 100 100 100 100 100 100 100 100 100 100 100 100 100 99 90 86 99 78 95 95 98 100 99 92 80 60 15 87 93 100 88 93 76 100